Weather History for Odessa, TX

Change the Weather History Date:

Tuesday, September 24, 2013

  Actual Average (KMAF) Record (KMAF)
Temperature  
Mean Temperature 72 °F 72 °F  
Max Temperature 88 °F 84 °F 101 °F (1977)
Min Temperature 57 °F 59 °F 36 °F (1989)
Degree Days  
Heating Degree Days 0 1  
Month to date heating degree days 4  
Since 1 July heating degree days 4  
Cooling Degree Days 6 8  
Month to date cooling degree days 256  
Year to date cooling degree days 2140  
Growing Degree Days 22 (Base 50)    
Moisture  
Dew Point 42 °F    
Average Humidity 35    
Maximum Humidity 57    
Minimum Humidity 18    
Precipitation  
Precipitation 0.00 in 0.06 in 1.77 in (1961)
Month to date precipitation 1.52  
Year to date precipitation 11.24  
Sea Level Pressure  
Sea Level Pressure 29.90 in    
Wind  
Wind Speed 5 mph (NNE)    
Max Wind Speed 10 mph    
Max Gust Speed -    
Visibility 10 miles    
Events      
T = Trace of Precipitation, MM = Missing Value Source: NWS Daily Summary

Daily Weather History Graph

Daily Weather History Graph

Search for Another Location

Airport:

Trip Planner

Search our weather history database for the weather conditions in past years. The results will help you decide how hot, cold, wet, or windy it might be!

Date:

Astronomy

Sep. 24, 2013 Rise Set
Actual Time 7:39 AM CDT 7:43 PM CDT
Civil Twilight 7:14 AM CDT 8:07 PM CDT
Nautical Twilight 6:46 AM CDT 8:35 PM CDT
Astronomical Twilight 6:17 AM CDT 9:04 PM CDT
Moon 11:20 PM CDT (9/24) 12:37 PM CDT (9/24)
Length of Visible Light 12h 52m
Length of Day
12h 03m
Waning Gibbous, 73% of the Moon is Illuminated
Sep 24
Waning Gibbous
Sep 26
Last Quarter
Oct 4
New
Oct 11
First Quarter
Oct 18
Full

Hourly Weather History & Observations

Time (CDT) Temp. Dew Point Humidity Pressure Visibility Wind Dir Wind Speed Gust Speed Precip Events Conditions
12:53 AM 68.0 °F 37.9 °F 33% 29.81 in 10.0 mi NNW 3.5 mph - N/A   Clear
1:53 AM 68.0 °F 36.0 °F 31% 29.81 in 10.0 mi NNW 6.9 mph - N/A   Clear
2:53 AM 66.0 °F 37.0 °F 34% 29.83 in 10.0 mi NNW 4.6 mph - N/A   Clear
3:53 AM 64.9 °F 37.9 °F 37% 29.83 in 10.0 mi Calm Calm - N/A   Clear
4:53 AM 63.0 °F 39.9 °F 43% 29.84 in 10.0 mi NNW 4.6 mph - N/A   Clear
5:53 AM 63.0 °F 39.9 °F 43% 29.86 in 10.0 mi Calm Calm - N/A   Clear
6:53 AM 59.0 °F 42.1 °F 53% 29.89 in 10.0 mi Calm Calm - N/A   Clear
7:53 AM 57.0 °F 42.1 °F 57% 29.93 in 10.0 mi WNW 3.5 mph - N/A   Clear
8:53 AM 63.0 °F 42.1 °F 46% 29.95 in 10.0 mi North 8.1 mph - N/A   Clear
9:53 AM 68.0 °F 46.9 °F 47% 29.96 in 10.0 mi NNE 10.4 mph - N/A   Clear
10:53 AM 73.0 °F 48.9 °F 42% 29.98 in 10.0 mi NE 9.2 mph - N/A   Clear
11:53 AM 77.0 °F 50.0 °F 39% 29.98 in 10.0 mi NE 9.2 mph - N/A   Clear
12:53 PM 81.0 °F 48.0 °F 31% 29.97 in 10.0 mi NNE 8.1 mph - N/A   Clear
1:53 PM 84.9 °F 46.0 °F 26% 29.94 in 10.0 mi NNE 9.2 mph - N/A   Clear
2:53 PM 86.0 °F 42.1 °F 21% 29.91 in 10.0 mi ENE 8.1 mph - N/A   Clear
3:53 PM 86.0 °F 39.0 °F 19% 29.89 in 10.0 mi Variable 5.8 mph - N/A   Clear
4:53 PM 86.0 °F 39.0 °F 19% 29.88 in 10.0 mi ENE 5.8 mph - N/A   Clear
5:53 PM 86.0 °F 37.9 °F 18% 29.87 in 10.0 mi ENE 5.8 mph - N/A   Clear
6:53 PM 84.9 °F 37.9 °F 19% 29.88 in 10.0 mi North 4.6 mph - N/A   Clear
7:53 PM 80.1 °F 42.1 °F 26% 29.89 in 10.0 mi ENE 6.9 mph - N/A   Clear
8:53 PM 73.9 °F 43.0 °F 33% 29.90 in 10.0 mi ENE 6.9 mph - N/A   Clear
9:53 PM 72.0 °F 44.1 °F 37% 29.91 in 10.0 mi NE 6.9 mph - N/A   Clear
10:53 PM 70.0 °F 44.1 °F 39% 29.90 in 10.0 mi ENE 8.1 mph - N/A   Clear
11:53 PM 69.1 °F 44.1 °F 40% 29.89 in 10.0 mi East 8.1 mph - N/A   Clear